Regional Weather Roundup
Issued by NWS

Home | Current Version | Previous Version | Text Only | Print | Product List | Glossary On
Versions: 1 2 3 4 5 6 7 8 9 10 11 12 13 14 15 16 17 18 19 20 21 22 23 24 25 26 27 28 29 30 31 32 33 34 35 36 37 38 39 40 41 42 43 44 45 46 47 48 49 50
000
ASUS43 KLSX 291607
RWRMO

WEATHER SUMMARY FOR MISSOURI
NATIONAL WEATHER SERVICE SPRINGFIELD MO
1100 AM CDT SUN MAR 29 2015

NOTE: "FAIR" INDICATES FEW OR NO CLOUDS BELOW 12,000 FEET WITH NO
       SIGNIFICANT WEATHER AND/OR OBSTRUCTIONS TO VISIBILITY.
       CURRENT SKY AND/OR WEATHER CONDITIONS ARE NOT AVAILABLE FOR
       CHILLICOTHE AND FARMINGTON.

MOZ001>031-035>038-043-044-053-054-291700-
...NORTHERN AND WESTERN MISSOURI...

CITY           SKY/WX    TMP DP  RH WIND       PRES   REMARKS
KANSAS CTY INT PTSUNNY   51  40  65 SW14      29.99R
KANSAS C DTWN  MOSUNNY   52  38  58 SW8       30.00R
ST JOSEPH      PTSUNNY   50  40  68 SW8       29.98S
CHILLICOTHE      N/A     47  37  68 SW15G21   29.98F
KIRKSVILLE     PTSUNNY   44  35  70 SW21G28   29.97R

$$
MOZ066>068-077>081-088>096-101>105-291700-
...SOUTHWEST MISSOURI...

CITY           SKY/WX    TMP DP  RH WIND       PRES   REMARKS
SPRINGFIELD    PTSUNNY   49  32  52 S9        30.07R
JOPLIN         MOSUNNY   57  39  51 SW12G20   30.04F

$$
MOZ032>034-039>042-045>050-055>058-069>072-291700-
...CENTRAL MISSOURI...

CITY           SKY/WX    TMP DP  RH WIND       PRES   REMARKS
COLUMBIA       CLOUDY    46  30  53 S22G29    30.02F
JEFFERSON CITY CLOUDY    48  29  47 S16       30.06R
ROLLA          MOSUNNY   48  30  49 S26G36    30.02F
SEDALIA        LGT RAIN  45  35  68 S15       30.01F
WHITEMAN AFB   PTSUNNY   46  36  69 S17G23    29.98F
WARRENSBURG    PTSUNNY   46  34  61 S16G22    30.01S
OSAGE BEACH    PTSUNNY   48  30  49 S10       30.08R

$$
MOZ051-052-059>065-291700-
...EAST CENTRAL MISSOURI...

CITY           SKY/WX    TMP DP  RH WIND       PRES   REMARKS
ST LOUIS INTL  PTSUNNY   49  22  34 S12G28    30.09F
SPIRIT OF STL  PTSUNNY   50  23  34 VRB6G21   30.08F
ST CHARLES     MOSUNNY   48  25  40 S13       30.11S

$$
MOZ072>076-082>087-097>100-106>115-291700-
...SOUTH CENTRAL AND SOUTHEAST MISSOURI...

CITY           SKY/WX    TMP DP  RH WIND       PRES   REMARKS
CAPE GIRARDEAU SUNNY     48  26  42 S15G22    30.22F
FARMINGTON     SUNNY     48  25  40 S24       30.16F
POPLAR BLUFF   SUNNY     47  29  49 S15       30.20F
WEST PLAINS    PTSUNNY   45  30  55 S15       30.14F

$$


USA.gov is the U.S. government's official web portal to all federal, state and local government web resources and services.